Location: Castelbiague
(43.0361°N, 0.9246°E)
Time: 13:56:56
(UTC+00:00)

Cosmos 2034 Rocket - Pass Details

Date: 17 June 2021
Orbit: 957 x 1001 km, 82.9° (Epoch: 04 August)

Event Time Altitude Azimuth Distance (km) Brightness Sun altitude
Rises 23:25:19 0° 353° (N) 3,668 8.5 -23.1°
Reaches altitude 10° 23:27:50 10° 355° (N) 2,712 7.4 -23.2°
Maximum altitude 23:34:03 78° 81° (E) 984 3.9 -23.3°
Enters shadow 23:35:50 49° 158° (SSE) 1,224 4.1 -23.4°
